GW1496 Weather Reports


Display with metric or nautical units.
time (UTC)temp
F
wind
direction
speed
MPH
gust
MPH
rain 1hr
in
rain 24hr
in
rain mn
in
humidity
%
barometer
mb
20260504081814 42 248 0.0 0.0 0.00 0.00 0.00 82 1006.7
20260504081216 42 248 0.0 0.0 0.00 0.00 0.00 80 1006.7
20260504080626 42 248 0.0 0.0 0.00 0.00 0.00 81 1006.7
20260504045417 44 292 1.0 1.0 0.00 0.00 0.00 76 1007.7
20260504044831 44 292 0.0 0.0 0.00 0.00 0.00 75 1007.7
20260504044221 44 292 0.0 0.0 0.00 0.00 0.00 74 1006.7
20260504043642 44 292 0.0 0.0 0.00 0.00 0.00 75 1006.7
20260504043048 44 292 0.0 0.0 0.00 0.00 0.00 74 1006.7
20260504042431 44 292 0.0 0.0 0.00 0.00 0.00 74 1007.7
20260504041228 45 292 0.0 0.0 0.00 0.00 0.00 72 1007.7
20260504040644 45 292 0.0 0.0 0.00 0.00 0.00 73 1007.7
20260504040029 45 292 0.0 0.0 0.00 0.00 0.00 71 1007.7
20260504035428 46 292 0.0 0.0 0.00 0.00 0.00 72 1006.7
20260504034214 46 292 0.0 0.0 0.00 0.00 0.00 70 1006.7
20260504033612 46 292 0.0 0.0 0.00 0.00 0.00 69 1006.7
20260504033036 46 292 0.0 0.0 0.00 0.00 0.00 68 1006.7
20260504031244 46 292 0.0 0.0 0.00 0.00 0.00 67 1006.7
20260504030018 47 292 1.0 1.0 0.00 0.00 0.00 66 1006.7
20260504025413 47 292 0.0 0.0 0.00 0.00 0.00 65 1006.7
20260504024824 47 292 0.0 0.0 0.00 0.00 0.00 65 1006.7
20260504024220 47 292 0.0 0.0 0.00 0.00 0.00 66 1006.7
20260504023633 48 292 0.0 0.0 0.00 0.00 0.00 59 1006.7
20260504023027 48 292 2.0 2.0 0.00 0.00 0.00 61 1006.7
20260504022437 47 292 0.0 0.0 0.00 0.00 0.00 63 1006.7
20260504021834 47 338 0.0 0.0 0.00 0.00 0.00 66 1006.7
20260504020620 47 338 0.0 0.0 0.00 0.00 0.00 65 1006.7
20260504020020 47 338 0.0 0.0 0.00 0.00 0.00 66 1006.7
20260504015443 47 338 0.0 0.0 0.00 0.00 0.00 61 1006.7
20260504014826 48 338 0.0 0.0 0.00 0.00 0.00 59 1006.7
20260504014244 48 338 0.0 0.0 0.00 0.00 0.00 63 1006.7
20260504013650 48 338 0.0 0.0 0.00 0.00 0.00 61 1006.7
20260504012412 49 338 0.0 0.0 0.00 0.00 0.00 61 1006.7
20260504011837 49 338 0.0 0.0 0.00 0.00 0.00 57 1006.7
20260504011214 50 338 0.0 0.0 0.00 0.00 0.00 59 1006.7
20260504010635 50 338 0.0 0.0 0.00 0.00 0.00 55 1006.7
20260504010049 50 338 0.0 0.0 0.00 0.00 0.00 56 1006.7
20260504005438 51 338 0.0 0.0 0.00 0.00 0.00 53 1006.0
20260504004247 50 338 0.0 0.0 0.00 0.00 0.00 57 1006.0
20260504003614 51 338 0.0 0.0 0.00 0.00 0.00 56 1006.0
20260504003040 51 338 0.0 0.0 0.00 0.00 0.00 54 1006.0
20260504002436 52 338 0.0 0.0 0.00 0.00 0.00 54 1006.0
20260504001818 52 338 0.0 0.0 0.00 0.00 0.00 51 1006.0
20260504001219 53 338 0.0 0.0 0.00 0.00 0.00 54 1006.0
20260504000654 54 338 0.0 0.0 0.00 0.00 0.00 49 1006.0
20260504000042 54 338 0.0 0.0 0.00 0.00 0.00 46 1006.0
20260503235412 55 338 0.0 0.0 0.00 0.00 0.00 44 1006.0
20260503234815 55 338 0.0 0.0 0.00 0.00 0.00 44 1006.0
20260503234236 56 338 0.0 0.0 0.00 0.00 0.00 48 1006.0
20260503233627 56 338 0.0 0.0 0.00 0.00 0.00 43 1006.0
20260503233035 56 338 0.0 0.0 0.00 0.00 0.00 42 1006.0
20260503232447 57 338 0.0 0.0 0.00 0.00 0.00 39 1006.0
20260503231818 57 338 0.0 0.0 0.00 0.00 0.00 40 1006.0
20260503231252 58 338 0.0 0.0 0.00 0.00 0.00 40 1006.0
20260503230636 58 248 0.0 0.0 0.00 0.00 0.00 37 1006.0
20260503230041 59 248 2.0 2.0 0.00 0.00 0.00 36 1006.0
20260503224223 63 248 1.0 1.0 0.00 0.00 0.00 28 1006.0
20260503223614 64 248 0.0 0.0 0.00 0.00 0.00 26 1006.0
20260503223014 66 292 3.0 3.0 0.00 0.00 0.00 28 1006.0
20260503222422 66 338 0.0 0.0 0.00 0.00 0.00 29 1006.0
20260503221820 66 225 1.0 1.0 0.00 0.00 0.00 28 1006.0
20260503221224 66 180 1.0 1.0 0.00 0.00 0.00 22 1006.0
20260503220654 66 248 1.0 1.0 0.00 0.00 0.00 21 1006.0
20260503220044 66 225 2.0 2.0 0.00 0.00 0.00 23 1006.0
20260503215439 66 292 0.0 0.0 0.00 0.00 0.00 23 1006.0
20260503214810 65 248 3.0 3.0 0.00 0.00 0.00 23 1006.0
20260503214224 65 90 1.0 1.0 0.00 0.00 0.00 24 1006.0
20260503213647 65 225 3.0 4.0 0.00 0.00 0.00 22 1006.0
20260503212440 65 112 0.0 0.0 0.00 0.00 0.00 23 1006.7
20260503211827 65 158 2.0 2.0 0.00 0.00 0.00 22 1006.7
20260503211227 65 225 1.0 1.0 0.00 0.00 0.00 24 1006.7
20260503210647 64 225 1.0 1.0 0.00 0.00 0.00 24 1006.7
20260503210017 65 292 2.0 2.0 0.00 0.00 0.00 25 1006.7
20260503205430 65 270 5.0 5.0 0.00 0.00 0.00 24 1006.7
20260503204242 65 112 2.0 2.0 0.00 0.00 0.00 24 1006.7
20260503203038 64 112 4.0 4.0 0.00 0.00 0.00 24 1006.7
20260503202422 64 112 2.0 2.0 0.00 0.00 0.00 25 1006.7
20260503201816 64 202 0.0 0.0 0.00 0.00 0.00 24 1006.7
20260503201234 64 248 4.0 4.0 0.00 0.00 0.00 24 1006.7
20260503200625 64 225 4.0 5.0 0.00 0.00 0.00 23 1006.7
20260503200026 63 270 2.0 2.0 0.00 0.00 0.00 24 1006.7
20260503195409 63 248 3.0 3.0 0.00 0.00 0.00 27 1007.7
20260503194821 63 292 4.0 5.0 0.00 0.00 0.00 25 1007.7
20260503194241 62 248 6.0 6.0 0.00 0.00 0.00 26 1007.7
20260503193621 61 270 2.0 2.0 0.00 0.00 0.00 28 1007.7
20260503193043 61 248 3.0 3.0 0.00 0.00 0.00 25 1007.7
20260503192436 61 248 2.0 2.0 0.00 0.00 0.00 26 1007.7
20260503191842 61 248 5.0 6.0 0.00 0.00 0.00 25 1007.7
20260503191249 61 248 5.0 6.0 0.00 0.00 0.00 26 1008.8
20260503190636 60 225 9.0 10.0 0.00 0.00 0.00 26 1008.8
20260503190052 60 248 2.0 2.0 0.00 0.00 0.00 26 1008.8
20260503185423 61 248 3.0 3.0 0.00 0.00 0.00 27 1008.8
20260503184846 61 292 6.0 7.0 0.00 0.00 0.00 27 1008.8
20260503184216 61 270 2.0 2.0 0.00 0.00 0.00 27 1008.8
20260503183031 60 135 0.0 0.0 0.00 0.00 0.00 28 1008.8
20260503182446 60 225 6.0 6.0 0.00 0.00 0.00 31 1008.8
20260503181853 60 225 4.0 5.0 0.00 0.00 0.00 31 1008.8
20260503181236 59 270 1.0 1.0 0.00 0.00 0.00 29 1008.8
20260503180651 59 248 5.0 5.0 0.00 0.00 0.00 27 1008.8
20260503180026 59 225 7.0 7.0 0.00 0.00 0.00 28 1008.8
20260503175417 59 225 2.0 2.0 0.00 0.00 0.00 29 1008.8
20260503174820 58 270 4.0 4.0 0.00 0.00 0.00 28 1008.8
20260503174213 58 248 2.0 2.0 0.00 0.00 0.00 29 1008.8
20260503173627 58 248 4.0 5.0 0.00 0.00 0.00 30 1008.8
20260503173035 58 248 6.0 6.0 0.00 0.00 0.00 29 1008.8
20260503172413 57 225 7.0 7.0 0.00 0.00 0.00 31 1009.8
20260503171814 57 248 3.0 3.0 0.00 0.00 0.00 30 1009.8
20260503171254 57 248 4.0 5.0 0.00 0.00 0.00 30 1009.8
20260503150630 54 112 2.0 2.0 0.00 0.00 0.00 33 1010.8
20260503130620 48 112 0.0 0.0 0.00 0.00 0.00 59 1010.8
20260503110645 34 68 0.0 0.0 0.00 0.00 0.00 90 1009.8